www.pogodaiklimat.ru

Погода и климат >> Архив погоды >> Сенегал >> Matam


ПОГОДА в Matam

  • Прогноз погоды в Matam
  • Монитор погоды в Matam
  • Климат города

АРХИВ ПОГОДЫ в Matam

Время (UTC), дата Ветер
(напр.,м/с)
 
Видим.   Явления Облачность Т
(С)
Тd
(С)
f
(%)
Тe
(С)
Тes
(С)
Комфортность P
(гПа)
Po
(гПа)
Тmin
(С)
Tmax
(С)
R
(мм)
R24
(мм)
S
(см)
03 13.07 СЗ 3 10 км ясно +30.0 +19.4 53 +36 +36 очень
душно
1010.5 1008.6
06 13.07 СЗ 1 10 км ясно +28.2 +17.7 53 +33 +33 очень
душно
1011.3 1009.4 +27.8
09 13.07 З 2 10 км ясно +29.2 +21.2 62 +37 +44 очень
душно
1012.7 1010.8
12 13.07 Ю 1 10 км ясно +33.2 +21.3 50 +41 +67 опасность
перегрева
1014.8 1012.9
15 13.07 ЮВ 2 10 км 4/0
[Ci sp]
+38.4 +21.5 38 +46 +61 опасность
перегрева
1011.1 1009.2
18 13.07 ЮЗ 1 10 км 8/0
[Ci sp]
+37.5 +21.3 39 +45 +47 опасность
перегрева
1010.8 1008.9 +38.4
21 13.07 штиль 0 10 км 3/0
[Ci sp]
+33.4 +22.8 54 +43 +43 опасность
перегрева
1012.0 1010.1
00 14.07 Ю 1 10 км 4/0
[Ci sp]
+31.4 +23.4 63 +42 +42 опасность
перегрева
1013.8 1011.9
03 14.07 штиль 0 10 км ясно +30.0 +21.9 62 +39 +39 очень
душно
1012.6 1010.7
06 14.07 штиль 0 10 км ясно +28.5 +22.7 71 +38 +38 очень
душно
1013.1 1011.2 +28.0
09 14.07 СЗ 1 10 км 3/0
[Ci sp]
+30.6 +23.6 66 +41 +50 опасность
перегрева
1014.3 1012.4
12 14.07 СЗ 1 10 км 3/0
[Ac trans Ci sp]
+36.0 +22.9 47 +46 +69 опасность
перегрева
1015.0 1013.1
15 14.07 СВ 1 10 км 4/3 450 м
[Sc Ac trans]
+39.5 +21.7 36 +47 +59 опасность
перегрева
1013.0 1011.1
18 14.07 штиль 0 10 км 5/0
[Ci sp]
+39.0 +21.8 37 +46 +49 опасность
перегрева
1010.8 1008.9 +40.2
21 14.07 штиль 0 10 км ясно +35.1 +23.0 50 +45 +45 опасность
перегрева
1011.8 1009.9
00 15.07 З 1 10 км ясно +34.0 +22.5 51 +43 +43 опасность
перегрева
1012.8 1010.9
03 15.07 СЗ 2 10 км ясно +33.0 +23.0 56 +43 +43 опасность
перегрева
1010.3 1008.4
06 15.07 СЗ 1 10 км ясно +31.2 +19.6 50 +37 +37 очень
душно
1011.5 1009.6 +30.5
09 15.07 СЗ 2 10 км 6/0
[Ac trans]
+31.0 +19.7 51 +37 +42 очень
душно
1012.1 1010.2
12 15.07 З 2 10 км 6/0
[Ac trans]
+35.0 +20.2 42 +41 +54 опасность
перегрева
1011.3 1009.4
15 15.07 СЗ 4 10 км 3/0
[Ac trans]
+38.4 +20.0 34 +35 +44 очень
жарко
1007.9 1006.0
18 15.07 З 2 10 км ясно +38.2 +19.6 34 +43 +45 опасность
перегрева
1006.4 1004.5 +39.0
21 15.07 СЗ 2 8000 м ясно +36.0 +19.7 39 +42 +42 опасность
перегрева
1007.7 1005.8
00 16.07 З 3 8000 м ясно +32.5 +19.4 46 +38 +38 очень
душно
1010.2 1009.3
03 16.07 З 2 8000 м ясно +30.0 +19.7 54 +36 +36 очень
душно
1009.4 1007.5
06 16.07 З 2 8000 м ясно +28.5 +21.9 67 +37 +37 очень
душно
1009.4 1007.5 +28.0
09 16.07 З 2 10 км 3/3 480 м
[Sc]
+29.1 +22.2 66 +38 +43 очень
душно
1012.2 1010.3
12 16.07 З 2 10 км ясно +33.2 +21.2 49 +41 +61 опасность
перегрева
1011.3 1009.4
15 16.07 З 2 10 км ясно +36.8 +21.1 40 +44 +61 опасность
перегрева
1008.8 1006.9
18 16.07 З 1 10 км ясно +36.6 +20.0 38 +42 +45 опасность
перегрева
1008.1 1006.2 +37.4
21 16.07 З 1 10 км ясно +34.5 +20.5 44 +41 +41 опасность
перегрева
1009.5 1007.6
00 17.07 З 1 10 км ясно +32.7 +21.1 51 +40 +40 очень
душно
1011.3 1009.4
03 17.07 З 2 10 км ясно +31.2 +21.7 57 +40 +40 очень
душно
1010.3 1009.4
06 17.07 СЗ 1 10 км ясно +29.5 +22.0 64 +38 +38 очень
душно
1011.7 1009.8 +28.8
09 17.07 З 1 10 км 3/0
[Ci sp]
+30.3 +22.6 63 +40 +47 очень
душно
1013.3 1011.4
12 17.07 ЮЗ 1 10 км 3/1 480 м
[Sc Ci sp]
+34.0 +22.8 52 +44 +65 опасность
перегрева
1013.3 1011.4
15 17.07 З 2 10 км 4/4 480 м
[Sc Ci sp]
+36.5 +22.1 43 +45 +55 опасность
перегрева
1011.0 1009.1
18 17.07 З 1 10 км 4/4 480 м
[Sc]
+36.4 +22.3 44 +45 +46 опасность
перегрева
1009.9 1008.0 +37.5
21 17.07 З 1 10 км ясно +33.8 +22.6 52 +43 +43 опасность
перегрева
1010.8 1008.9
00 18.07 штиль 0 10 км зарница 4/1
[Cb cap Ac trans]
+32.0 +24.2 63 +44 +44 опасность
перегрева
1013.3 1011.4
03 18.07 штиль 0 8000 м гроза, ливневой дождь 9/1 900 м
[Cb cap Ac trans]
+26.5 +24.9 91 +38 +38 очень
душно
1012.3 1010.4
06 18.07 штиль 0 8000 м гроза, ливневой дождь 9/1 900 м
[Cb cap Ac As]
+25.0 +23.3 90 +33 +33 очень
душно
1013.6 1011.9 +24.0 4
09 18.07 З 1 8000 м слабый дождь 9/3 480 м
[Sc Ac und Cs]
+25.5 +24.6 95 +36 +39 очень
душно
1014.6 1012.7
12 18.07 СЗ 1 10 км {дождь} 6/3 480 м
[Sc Ac trans]
+28.1 +25.9 88 +42 +55 опасность
перегрева
1014.1 1012.2 5
15 18.07 З 1 10 км 8/0
[Ac trans]
+33.5 +24.0 58 +45 +55 опасность
перегрева
1010.7 1008.8
18 18.07 З 1 10 км 4/0
[Ac trans Ci sp]
+34.0 +24.4 57 +46 +48 опасность
перегрева
1009.4 1007.5 +34.7 3
21 18.07 СЗ 1 10 км зарница 4/1 900 м
[Cb calv Ac trans Ci sp]
+31.0 +25.4 72 +45 +45 опасность
перегрева
1011.4 1009.5
00 19.07 Ю 2 10 км слабый дождь 9/1 900 м
[Cb calv Ac As]
+27.0 +22.6 77 +36 +36 очень
душно
1013.7 1011.8 0.0
03 19.07 СВ 1 10 км слабый дождь 9/0
[Ac As]
+25.0 +23.1 89 +33 +33 очень
душно
1013.1 1011.2
06 19.07 штиль 0 10 км {дождь} 9/0
[Ac As]
+24.0 +23.4 96 +32 +32 очень
душно
1012.2 1010.3 +23.8 6
09 19.07 С 1 10 км 6/4 400 м
[Sc Ac As]
+27.0 +24.1 84 +37 +41 очень
душно
1013.8 1011.9
12 19.07 СВ 1 10 км 6/4 480 м
[Cu med, cong Ac trans]
+31.0 +24.5 68 +43 +56 опасность
перегрева
1013.9 1012.0
15 19.07 ЮВ 1 10 км 6/4 480 м
[Sc Ci sp]
+34.3 +24.8 58 +48 +59 опасность
перегрева
1012.6 1010.7
18 19.07 штиль 0 10 км 5/1 480 м
[Sc Ci sp]
+34.0 +24.1 56 +46 +48 опасность
перегрева
1011.6 1009.7 +35.4
21 19.07 штиль 0 10 км ясно +30.6 +25.3 73 +44 +44 опасность
перегрева
1013.1 1011.2

 

Местоположение метеостанции Matam (Сенегал): широта 15.65 долгота -13.25 высота над уровнем моря 17 м.

В архиве по умолчанию представлена погода в Matam за последнюю неделю. Архивные данные за месяц целиком и за предыдущие месяцы, начиная с января 2011 года, Вы можете получить, выбрав интересующий диапазон дат из раскрывающегося списка и нажав кнопку "Ввод!".


*Определитесь, кто Вы:
робот инопланетянин человек

Внимание! Время в таблицах - всемирное. Для получения местного времени необходимо прибавить поправку, которая в Matam равна 0 ч.

Смотрите также архив погоды в соседних городах и на ближайших метеорологических станциях:

Погода в Kaedi (Мавритания) (62 км)
Погода в Fatoto (Гамбия) (198 км)
Погода в Linguere (Сенегал) (202 км)
Погода в Podor (Сенегал) (214 км)
Погода в Tambacounda (Сенегал) (214 км)
Погода в Kiffa (Мавритания) (226 км)
Погода в Kayes (Мали) (238 км)
Погода в Boutilimit (Мавритания) (259 км)
Погода в Georgetown (Гамбия) (287 км)
Погода в Rosso (Мавритания) (289 км)

Пояснения к столбцам:

Ветер - указаны скорость ветра в м/с - средняя за 10 мин, порывы в срок и между сроками (в фигурных скобках) и направление, откуда дует ветер: С - северный, СВ - северо-восточный, В - восточный, ЮВ - юго-восточный, Ю - южный, ЮЗ - юго-западный, З - западный, СЗ - северо-западный.
Видимость - горизонтальная дальность видимости в метрах или километрах. При видимости от 1 до 10 км при отсутствии осадков обычно наблюдается дымка, при ухудшении видимости до 1 км и менее - туман. В сухую погоду видимость может ухудшаться дымом, пылью или мглою.
Явления - указаны атмосферные явления, наблюдавшиеся в срок или в последний час перед сроком; фигурными скобками обозначены явления, наблюдавшиеся между сроками (за 1-3 часа до срока); квадратными скобками обозначены град или гололедные отложения с указанием их диаметра в мм.
Облачность - указаны через наклонную черту общая и нижняя облачность в баллах и высота нижней границы облаков в метрах; квадратными скобками обозначены формы облаков: Ci - перистые, Cs - перисто-слоистые, Cc - перисто-кучевые, Ac - высококучевые, As - высокослоистые, Sc - слоисто-кучевые, Ns - слоисто-дождевые, Cu - кучевые, Cb - кучево-дождевые. Подробнее классификацию облаков см. в Атласе облаков (PDF).
T - Температура воздуха - температура, измеренная на высоте 2 м над землей.
Td - Температура точки росы - температура, при понижении до которой содержащийся в воздухе водяной пар достигнет насыщения.
f - Относительная влажность воздуха - влажноcть воздуха, измеренная на высоте 2 м над землей.
Te - Эффективная температура - температура, которую ощущает одетый по сезону человек в тени. Характеристика душности погоды. При расчете учитывается влияние влажности воздуха и скорости ветра на теплоощущения человека.
Tes - Эффективная температура на солнце - температура, которую ощущает человек, с поправкой на солнечный нагрев. Характеристика знойности погоды. Зависит от высоты солнца над горизонтом, облачности и скорости ветра. Ночью, в пасмурную погоду, а также при ветре 12 м/с и более поправка равна нулю.
P - Атмосферное давление - приведенное к уровню моря атмосферное давление.
Po - Атмосферное давление - измеренное на уровне метеостанции атмосферное давление.
Tmin - Минимальная температура - минимум температуры воздуха на высоте 2 м над землей.
Tmax - Максимальная температура - максимум температуры воздуха на высоте 2 м над землей.
R - Количество осадков - Количество выпавших осадков за период времени, мм. При наведении курсора мыши на число - период времени, за который выпало указанное количество осадков.
R24 - Количество осадков - Количество выпавших осадков за 24 часа, мм.
S - Снежный покров - Высота снежного покрова, см. При наведении курсора мыши на число - состояние снежного покрова и степень покрытия местности в баллах.